Terminal Aerodrome Forecast
Issued by NWS Pueblo, CO

Home | Current Version | Previous Version | Text Only | Print | Product List | Glossary On
Versions: 1 2 3 4 5 6 7 8 9 10 11 12 13 14 15 16 17 18 19 20 21 22 23 24 25 26 27 28 29 30 31 32 33
000
FTUS45 KPUB 231121
TAFPUB
TAF
KPUB 231121Z 2312/2412 30005KT P6SM FEW140
     FM231600 29010KT P6SM SCT120
     FM232100 14008KT P6SM SCT070 SCT140
     FM240200 02006KT P6SM SCT120=

USA.gov is the U.S. government's official web portal to all federal, state and local government web resources and services.